Date,TemperatureHighF,TemperatureAvgF,TemperatureLowF,DewpointHighF,DewpointAvgF,DewpointLowF,HumidityHigh,HumidityAvg,HumidityLow,PressureMaxIn,PressureMinIn,WindSpeedMaxMPH,WindSpeedAvgMPH,GustSpeedMaxMPH,PrecipitationSumIn
2013-1-1,20,6,-8,18,5,-6,92,86,75,29.26,29.03,11,1,11,0.00
2013-1-2,22,18,14,21,18,14,97,95,88,29.09,28.96,16,2,17,0.00
2013-1-3,19,12,8,18,10,4,92,87,78,29.27,29.09,18,5,19,0.00
2013-1-4,27,20,13,18,16,11,93,82,69,29.13,29.01,12,3,13,0.00
2013-1-5,24,16,8,16,14,8,96,86,71,29.09,28.87,18,3,18,0.00
2013-1-6,20,15,9,18,12,8,95,85,75,29.23,29.00,15,3,18,0.00
2013-1-7,35,28,19,28,24,18,91,81,70,29.00,28.90,15,3,15,0.00
2013-1-8,33,26,15,29,24,16,98,90,81,28.99,28.78,18,4,18,0.00
2013-1-9,33,29,24,29,24,21,89,79,69,29.37,28.92,28,6,29,0.04
2013-1-10,38,33,27,35,28,23,100,82,56,29.30,28.75,24,8,25,0.24
2013-1-11,41,37,34,41,37,35,100,100,99,28.76,28.41,14,5,14,0.01
2013-1-12,38,14,3,38,10,0,99,83,74,29.08,28.43,28,8,30,0.00
2013-1-13,8,4,0,4,2,-6,87,84,79,29.23,29.05,14,4,14,0.00
2013-1-14,12,7,3,8,5,0,90,83,72,29.40,29.23,12,3,12,0.00
2013-1-15,29,19,9,21,14,8,95,79,62,29.26,28.83,14,2,14,0.00
2013-1-16,35,26,10,33,20,4,97,78,50,29.23,28.68,20,6,23,0.00
2013-1-17,18,11,4,14,5,-6,81,70,58,29.39,29.23,13,3,14,0.00
2013-1-18,39,29,16,31,25,11,93,82,70,29.28,28.77,21,6,21,0.00
2013-1-19,38,23,2,32,19,0,98,82,66,29.25,28.69,40,8,40,11.38
2013-1-20,6,2,-3,4,-2,-6,84,74,64,29.40,29.23,27,6,29,0.02
2013-1-21,-3,-7,-11,-6,-12,-13,81,74,68,29.34,29.26,23,5,24,0.00
2013-1-22,5,-4,-12,4,-8,-13,80,75,67,29.39,29.23,13,3,13,0.00
2013-1-23,14,6,-5,11,0,-13,89,71,54,29.59,29.14,31,7,31,0.15
2013-1-24,14,7,-6,4,-2,-13,67,62,56,29.60,29.15,27,10,27,0.00
2013-1-25,18,12,3,14,6,0,82,74,64,29.30,28.96,28,6,30,0.04
2013-1-26,24,12,0,14,7,-6,87,72,59,29.33,29.11,22,8,22,0.00
2013-1-27,32,30,24,31,24,14,100,81,63,29.11,28.82,22,8,23,0.01
2013-1-28,34,32,31,35,32,31,100,100,99,28.92,28.66,17,4,17,0.20
2013-1-29,35,32,27,35,31,24,100,93,85,28.78,28.57,20,6,20,0.04
2013-1-30,27,17,8,24,13,4,88,82,77,28.78,28.68,26,11,28,0.00
2013-1-31,8,0,-9,4,-3,-13,85,78,71,29.27,28.78,30,8,30,0.00
2013-2-1,4,-4,-13,4,-8,-13,89,77,61,29.30,29.04,14,3,17,0.00
2013-2-2,11,5,0,8,2,-6,90,82,68,29.18,28.97,10,3,10,0.00
2013-2-3,12,9,3,11,6,0,92,84,71,29.09,28.97,22,4,22,0.00
2013-2-4,15,10,4,11,5,0,93,77,59,29.08,28.75,12,3,12,0.00
2013-2-5,28,21,5,26,18,4,97,86,65,29.08,28.68,20,4,20,0.00
2013-2-6,25,15,2,23,14,4,93,90,84,29.10,28.94,19,4,19,0.00
2013-2-7,27,25,20,24,23,18,98,91,82,29.27,29.00,17,6,18,0.00
2013-2-8,25,22,16,24,19,14,90,86,80,29.38,29.21,18,6,19,0.00
2013-2-9,32,28,25,31,26,24,98,92,89,29.22,28.94,24,8,24,0.00
2013-2-10,33,30,28,33,30,26,100,98,93,28.94,28.33,26,10,27,0.07
2013-2-11,30,24,14,31,22,11,100,89,82,29.05,28.39,29,9,31,0.00
2013-2-12,32,23,12,26,20,11,96,85,72,29.05,28.82,14,4,15,0.01
2013-2-13,37,28,17,32,25,16,100,88,71,28.83,28.60,9,2,9,0.02
2013-2-14,32,24,10,32,20,4,100,83,53,29.19,28.62,22,6,26,0.01
2013-2-15,16,9,2,8,4,0,89,77,62,29.31,29.19,18,5,19,0.00
2013-2-16,21,8,0,11,6,0,94,83,61,29.25,29.09,10,2,10,0.00
2013-2-17,31,21,8,26,17,4,88,80,72,29.10,28.64,29,11,29,0.00
2013-2-18,33,22,6,32,19,4,94,85,79,28.83,28.55,28,7,29,0.00
2013-2-19,6,2,-4,4,-2,-6,86,75,64,29.36,28.83,29,10,29,0.00
2013-2-20,16,4,-8,8,-1,-13,85,72,55,29.46,29.36,9,3,10,0.00
2013-2-21,21,14,4,14,8,0,86,74,62,29.43,29.09,18,6,19,0.00
2013-2-22,28,22,19,23,20,14,94,88,71,29.09,28.89,16,5,17,0.00
2013-2-23,27,21,11,24,19,11,96,91,82,28.98,28.86,10,3,10,0.00
2013-2-24,36,19,4,24,16,4,96,84,58,29.12,28.97,7,1,7,0.00
2013-2-25,38,26,16,26,22,16,96,82,60,29.14,29.04,8,1,9,0.00
2013-2-26,34,24,12,28,22,14,97,87,76,29.07,28.91,17,4,17,0.00
2013-2-27,40,31,26,28,25,23,89,78,54,29.07,28.91,20,7,22,0.01
2013-2-28,30,28,23,24,22,16,85,76,71,29.24,29.06,19,6,20,0.00
2013-3-1,30,23,16,18,16,11,85,73,62,29.36,29.23,19,6,20,0.00
2013-3-2,34,20,6,16,13,8,94,73,43,29.36,29.18,7,1,7,0.00
2013-3-3,30,25,19,16,13,11,73,58,43,29.18,28.99,22,9,23,0.00
2013-3-4,28,24,22,23,19,14,96,79,56,29.05,28.94,28,10,28,0.00
2013-3-5,30,25,22,26,24,18,98,92,83,29.32,28.99,18,6,18,0.00
2013-3-6,29,22,6,21,18,8,95,83,70,29.43,29.32,18,4,18,0.04
2013-3-7,29,18,2,21,14,4,95,81,66,29.39,29.28,20,6,20,0.00
2013-3-8,38,28,16,31,24,14,96,85,70,29.33,29.10,19,7,20,0.02
2013-3-9,36,35,33,36,35,31,100,98,83,29.11,28.74,19,7,21,0.54
2013-3-10,35,32,28,35,30,24,100,89,82,29.00,28.83,26,9,30,0.01
2013-3-11,30,26,21,24,23,16,88,83,73,28.91,28.79,17,7,17,0.00
2013-3-12,27,24,19,23,17,11,86,75,56,29.21,28.86,27,8,30,0.00
2013-3-13,29,20,10,21,15,8,93,79,59,29.41,29.20,19,4,20,0.00
2013-3-14,43,30,24,29,25,21,96,79,55,29.26,29.04,16,4,18,0.01
2013-3-15,33,30,24,32,29,23,97,93,87,29.05,28.86,17,5,17,0.04
2013-3-16,24,20,11,24,15,4,97,80,61,29.25,28.93,20,7,22,0.03
2013-3-17,27,17,6,23,10,0,81,69,59,29.27,28.87,29,11,29,0.00
2013-3-18,31,21,11,31,18,8,99,85,77,28.87,28.64,35,11,35,0.00
2013-3-19,20,12,5,11,5,0,83,70,55,29.20,28.83,29,8,29,0.00
2013-3-20,19,11,4,8,3,0,75,66,54,29.23,29.13,27,7,30,0.00
2013-3-21,27,15,1,14,7,0,88,66,49,29.14,29.07,11,2,11,0.00
2013-3-22,39,21,4,18,12,4,91,68,37,29.13,29.07,12,2,12,0.00
2013-3-23,41,26,13,23,17,11,92,68,40,29.20,29.09,12,2,12,0.00
2013-3-24,32,28,25,26,24,21,96,81,65,29.13,29.01,19,6,19,0.00
2013-3-25,36,29,22,24,20,16,81,66,50,29.25,29.07,20,7,22,0.00
2013-3-26,36,28,21,24,21,16,88,74,54,29.34,29.25,12,4,13,0.00
2013-3-27,43,29,14,26,20,14,97,69,38,29.39,29.31,8,1,8,0.00
2013-3-28,42,31,18,28,24,18,96,73,51,29.38,29.31,15,3,15,0.00
2013-3-29,46,38,32,38,32,26,87,78,65,29.31,29.10,18,5,18,0.00
2013-3-30,49,42,34,41,37,32,95,82,71,29.10,28.90,19,4,20,0.21
2013-3-31,36,32,22,33,25,14,99,75,46,29.13,28.85,33,9,33,0.04
2013-4-1,31,24,16,21,16,11,82,69,53,29.30,29.12,24,7,24,0.00
2013-4-2,36,26,18,21,16,14,89,66,38,29.38,29.27,18,4,18,0.00
2013-4-3,44,32,18,33,24,16,94,71,47,29.42,29.09,23,4,24,0.00
2013-4-4,46,40,32,35,29,24,86,64,45,29.21,29.04,24,7,24,0.00
2013-4-5,39,33,26,33,26,18,97,77,48,29.27,28.91,29,9,29,0.08
2013-4-6,48,40,36,44,35,31,96,82,69,28.91,28.57,27,11,28,0.21
2013-4-7,44,39,35,40,34,29,96,83,67,28.99,28.81,16,4,16,0.11
2013-4-8,44,41,39,44,40,37,100,97,90,29.09,28.72,17,5,18,0.43
2013-4-9,41,37,32,37,32,26,94,81,60,29.21,29.02,24,10,24,0.17
2013-4-10,38,34,31,32,27,23,99,76,59,29.23,28.93,28,10,28,0.02
2013-4-11,36,33,30,36,32,26,100,93,70,28.95,28.73,26,10,26,0.38
2013-4-12,35,31,28,33,30,28,99,92,77,28.89,28.72,16,5,17,0.02
2013-4-13,36,32,29,31,28,24,99,83,67,28.99,28.86,15,4,18,0.02
2013-4-14,38,32,29,38,30,23,100,89,73,28.98,28.51,30,12,31,0.69
2013-4-15,38,35,32,35,30,26,96,82,73,29.02,28.56,30,7,30,0.01
2013-4-16,44,36,32,31,28,26,87,73,54,29.35,29.01,23,5,23,0.00
2013-4-17,39,36,33,36,31,28,98,81,73,29.35,28.93,19,6,20,0.09
2013-4-18,35,33,32,35,33,31,100,99,95,28.98,28.57,32,10,32,0.05
2013-4-19,36,34,28,36,28,21,100,79,55,29.03,28.55,33,13,33,0.25
2013-4-20,42,31,21,24,19,8,90,60,29,29.33,29.03,11,3,13,0.07
2013-4-21,48,40,33,48,37,21,99,88,55,29.33,29.05,31,10,31,0.16
2013-4-22,41,37,32,39,33,29,100,87,65,29.26,29.16,23,7,23,0.01
2013-4-23,39,33,27,33,26,18,100,75,44,29.21,29.10,20,7,20,0.21
2013-4-24,49,36,26,37,29,24,97,77,39,29.11,28.96,24,5,24,0.05
2013-4-25,62,40,32,35,30,23,96,70,38,29.26,29.02,20,5,20,289.28
2013-4-26,70,49,42,41,36,28,79,63,28,29.15,29.00,34,8,34,145.92
2013-4-27,73,62,40,44,36,26,81,41,20,29.16,28.94,12,3,14,536.49
2013-4-28,74,58,45,50,44,38,95,63,37,28.95,28.70,21,6,27,61.51
2013-4-29,72,58,46,53,43,35,95,62,29,28.89,28.60,14,4,14,419.84
2013-4-30,67,60,53,60,44,28,90,59,24,29.04,28.47,28,7,28,642.56
2013-5-1,54,41,34,38,34,28,98,75,50,29.51,29.04,24,6,24,7.84
2013-5-2,45,39,35,29,27,24,76,62,46,29.57,29.46,23,8,23,0.01
2013-5-3,37,34,32,33,29,24,92,81,65,29.45,29.19,22,9,22,28.16
2013-5-4,45,38,33,41,36,29,97,92,81,29.23,29.15,18,8,20,547.86
2013-5-5,65,48,38,48,42,35,96,81,55,29.23,29.12,11,3,13,442.88
2013-5-6,76,60,46,50,46,42,96,65,35,29.18,29.07,8,2,8,389.12
2013-5-7,78,64,52,53,48,41,95,61,29,29.14,29.01,8,1,10,386.56
2013-5-8,77,64,58,56,51,46,91,65,35,29.08,29.00,16,3,21,29.67
2013-5-9,59,53,44,56,48,29,92,81,56,29.17,29.02,23,8,25,473.61
2013-5-10,66,51,36,44,30,24,76,47,21,29.17,28.94,16,4,16,432.64
2013-5-11,57,46,42,42,28,21,66,49,33,29.23,28.94,36,13,36,402.62
2013-5-12,57,46,36,36,24,16,70,44,21,29.28,29.14,22,6,22,112.64
2013-5-13,71,56,44,48,36,24,74,48,35,29.16,28.71,25,5,27,368.64
2013-5-14,95,71,52,53,46,32,85,46,16,28.76,28.52,31,6,34,330.57
2013-5-15,79,66,54,48,46,41,72,49,30,28.99,28.75,25,4,26,332.80
2013-5-16,78,69,55,49,43,32,80,43,26,28.98,28.89,26,6,26,145.92
2013-5-17,67,58,55,56,51,32,97,81,27,29.05,28.94,26,9,27,156.34
2013-5-18,77,64,56,65,60,56,100,87,63,29.06,28.84,23,7,23,180.55
2013-5-19,77,68,62,68,64,61,100,88,65,28.87,28.63,24,5,28,313.18
2013-5-20,70,65,61,65,61,56,100,85,66,28.65,28.58,23,5,23,471.21
2013-5-21,61,56,48,59,55,48,100,98,93,28.78,28.59,15,6,17,286.74
2013-5-22,54,49,45,51,48,43,100,95,71,29.06,28.76,22,8,23,227.86
2013-5-23,64,53,45,45,37,29,89,58,30,29.39,29.05,20,7,22,28.16
2013-5-24,66,56,46,53,40,29,91,57,41,29.43,29.22,21,6,22,563.81
2013-5-25,59,56,54,52,49,44,92,78,66,29.30,29.25,29,12,29,432.67
2013-5-26,58,55,53,50,44,39,77,69,55,29.27,29.08,34,15,36,299.54
2013-5-27,59,56,53,55,52,48,98,86,74,29.10,28.90,30,10,30,296.97
2013-5-28,63,56,53,58,55,52,100,95,83,28.90,28.78,17,4,17,135.72
2013-5-29,76,64,56,68,61,56,100,90,74,28.90,28.69,54,6,73,494.37
2013-5-30,72,67,63,66,63,60,98,85,68,28.74,28.57,35,13,37,470.80
2013-5-31,74,67,63,62,56,50,92,69,47,28.63,28.56,34,11,34,0.70
2013-6-1,76,61,52,59,52,43,86,74,48,29.01,28.61,29,6,29,0.01
2013-6-2,67,56,47,48,42,39,87,60,37,29.15,29.00,22,6,22,0.00
2013-6-3,73,61,51,49,44,39,86,58,31,29.13,28.99,17,2,19,0.00
2013-6-4,63,59,55,54,51,46,94,75,55,29.13,29.02,290,9,290,1.83
2013-6-5,62,57,54,57,54,50,99,91,78,29.11,29.00,17,4,17,0.01
2013-6-6,56,53,50,54,51,49,99,95,89,29.10,29.02,14,5,14,0.00
2013-6-7,68,57,53,56,52,50,96,86,56,29.12,28.98,9,2,9,0.00
2013-6-8,64,60,58,55,54,54,90,83,72,28.99,28.97,6,3,6,0.00
2013-6-9,63,59,57,60,57,54,97,93,73,28.95,28.84,28,11,30,0.54
2013-6-16,67,62,61,63,58,54,100,88,71,29.00,28.85,661,2,9,2.91
2013-6-17,73,68,63,60,58,55,83,71,62,29.08,28.94,139,6,139,0.00
2013-6-18,73,63,55,59,54,48,82,73,56,29.16,29.08,14,6,14,0.00
2013-6-19,81,76,64,63,61,58,80,60,49,29.11,28.99,10,4,10,0.00
2013-6-20,88,80,71,67,65,64,79,62,47,29.06,28.92,5,1,5,0.00
2013-6-21,80,74,66,70,66,62,96,76,68,29.09,28.83,45,8,45,3.06
2013-6-22,78,75,73,70,69,68,88,81,72,28.94,28.89,11,4,11,1.24
2013-6-23,82,75,67,70,68,62,99,80,57,28.96,28.75,24,4,24,0.68
2013-6-24,81,73,67,72,68,64,100,83,65,28.98,28.87,15,2,15,0.00
2013-6-25,81,73,67,74,68,64,93,83,68,28.90,28.78,19,5,19,0.00
2013-6-26,82,76,74,76,72,66,99,88,66,28.89,28.73,31,2,31,0.00
2013-6-27,84,78,71,68,62,54,89,59,37,28.90,28.86,29,7,29,0.00
2013-6-28,77,71,66,66,61,58,94,70,59,28.90,28.83,28,9,30,0.07
2013-6-29,76,69,62,64,59,51,97,72,47,29.06,28.83,17,6,18,0.01
2013-6-30,81,70,59,62,54,50,85,60,36,29.18,29.06,14,4,15,0.00
2013-7-1,84,74,64,63,58,53,91,60,37,29.26,29.18,13,3,15,0.00
2013-7-2,83,74,62,64,55,48,80,54,34,29.23,29.11,10,3,12,0.00
2013-7-3,91,76,65,67,58,47,99,62,26,29.14,29.01,10,1,10,0.00
2013-7-4,90,78,66,64,60,54,80,55,31,29.03,28.92,5,1,6,0.00
2013-7-5,87,79,70,66,63,59,76,58,43,28.96,28.86,9,2,12,0.00
2013-7-6,88,80,74,72,66,62,73,64,52,28.94,28.86,8,1,8,0.00
2013-7-7,92,81,72,74,69,66,92,68,48,28.96,28.88,16,1,18,0.00
2013-7-8,91,75,64,72,68,64,98,80,52,29.08,28.96,10,4,10,0.00
2013-7-9,82,77,69,72,70,66,97,79,64,29.02,28.80,27,7,27,0.01
2013-7-10,78,71,62,66,58,54,88,65,45,29.12,29.00,19,6,19,0.00
2013-7-11,86,77,65,66,61,56,96,61,39,29.18,29.03,8,1,8,0.00
2013-7-12,87,79,70,65,62,60,71,58,45,29.08,28.95,15,2,18,0.00
2013-7-13,79,73,68,70,66,60,99,79,62,29.14,28.97,20,4,20,0.01
2013-7-14,87,76,69,70,66,62,88,72,51,29.21,29.11,9,1,9,1.73
2013-7-15,93,82,70,72,68,65,88,65,44,29.26,29.18,6,0,8,0.00
2013-7-16,94,85,75,74,72,68,90,68,46,29.24,29.18,9,0,9,0.00
2013-7-17,96,84,74,75,71,68,85,67,45,29.27,29.13,9,1,9,0.00
2013-7-18,93,85,76,73,71,69,84,65,48,29.14,28.80,9,1,9,0.00
2013-7-19,82,78,68,71,65,59,81,64,48,28.95,28.76,9,4,9,0.22
2013-7-20,83,72,66,65,61,58,87,70,47,28.99,28.91,9,4,9,0.00
2013-7-21,79,70,59,69,62,51,93,76,63,28.99,28.82,9,6,9,0.10
2013-7-22,83,74,68,71,66,57,95,76,54,28.91,28.71,9,3,9,0.00
2013-7-23,76,68,61,60,55,52,87,65,45,29.06,28.90,9,4,9,0.00
2013-7-24,81,70,63,62,57,54,80,66,43,29.12,28.99,9,2,9,0.00
2013-7-25,82,72,63,67,62,57,89,71,50,29.02,28.93,9,2,9,0.03
2013-7-26,71,64,57,64,56,49,89,77,62,29.12,28.94,9,4,9,0.02
2013-7-27,63,57,51,50,49,46,95,75,57,29.13,28.97,9,5,9,0.02
2013-7-28,71,61,50,59,51,47,90,71,53,29.11,29.00,9,4,9,0.00
2013-7-29,82,68,58,59,56,54,93,68,41,29.16,29.10,9,1,9,0.00
2013-7-30,73,67,62,65,62,57,97,86,70,29.14,29.08,9,2,9,0.15
2013-7-31,76,69,63,66,62,54,100,81,48,29.12,29.01,9,4,9,0.00
2013-8-1,86,71,59,65,57,53,88,64,41,29.08,28.90,10,2,10,0.00
2013-8-2,75,69,62,61,56,50,85,65,44,29.09,28.89,14,4,14,0.00
2013-8-3,76,68,58,57,53,49,87,62,40,29.24,29.09,11,3,12,0.00
2013-8-4,75,66,57,58,55,50,87,69,48,29.27,29.03,10,2,10,0.00
2013-8-5,84,69,61,69,64,57,100,84,61,29.06,28.83,28,2,28,0.73
2013-8-6,84,69,60,67,62,58,98,80,56,28.89,28.71,24,2,33,0.29
2013-8-7,75,67,60,61,56,50,99,74,42,29.08,28.83,14,4,15,0.00
2013-8-8,76,66,61,62,58,56,93,77,56,29.10,29.02,11,1,11,4.68
2013-8-9,73,67,61,61,56,50,97,70,48,29.17,29.04,22,6,22,0.00
2013-8-10,75,68,62,59,54,49,84,63,45,29.23,29.12,9,2,9,0.00
2013-8-11,83,71,65,67,62,57,91,74,51,29.13,29.02,8,2,8,0.00
2013-8-12,78,70,62,66,58,52,94,69,44,29.11,29.03,18,5,18,0.00
2013-8-13,76,67,59,58,52,45,92,62,38,29.23,29.11,16,4,16,0.00
2013-8-14,76,67,58,60,54,49,94,66,40,29.24,29.13,15,3,15,0.00
2013-8-15,83,69,58,61,57,53,91,67,43,29.17,29.10,11,1,11,0.00
2013-8-16,82,71,60,62,57,53,91,64,40,29.23,29.16,10,1,10,0.00
2013-8-17,82,72,62,60,58,56,87,64,44,29.24,29.13,6,0,6,0.00
2013-8-18,82,73,63,62,59,54,85,64,43,29.17,29.03,12,1,12,0.00
2013-8-19,88,75,66,70,65,59,85,72,54,29.07,28.93,7,0,7,0.00
2013-8-20,90,79,71,74,70,66,90,76,55,28.95,28.89,7,0,7,0.00
2013-8-21,87,79,72,76,72,61,95,80,60,29.04,28.88,9,2,9,0.00
2013-8-22,84,75,68,62,55,49,68,51,32,29.17,29.04,15,4,15,0.00
2013-8-23,85,74,66,69,61,52,84,65,53,29.18,29.06,13,3,13,0.00
2013-8-24,86,79,72,73,70,67,87,76,59,29.10,28.96,11,2,13,0.00
2013-8-25,93,84,77,75,73,71,87,71,54,29.04,28.96,9,1,10,0.00
2013-8-26,94,85,76,77,75,73,93,74,52,29.02,28.88,7,1,7,0.00
2013-8-27,92,83,76,79,75,71,93,78,60,28.97,28.83,10,2,10,0.00
2013-8-28,89,79,72,74,72,69,97,80,56,29.05,28.95,12,3,12,0.00
2013-8-29,94,83,76,76,73,69,95,73,46,29.04,28.88,15,1,15,0.00
2013-8-30,82,76,70,72,68,64,92,77,61,28.99,28.86,17,5,17,0.00
2013-8-31,92,76,67,71,66,64,92,74,49,28.94,28.76,30,3,30,0.14
2013-9-1,70,68,61,66,61,54,90,79,68,29.04,28.78,19,6,21,0.00
2013-9-2,68,60,56,55,54,52,92,81,63,29.15,29.03,14,3,14,0.00
2013-9-3,78,65,55,61,57,53,97,76,54,29.14,29.03,8,1,8,0.00
2013-9-4,87,73,63,69,63,59,97,74,49,29.19,29.04,10,2,11,0.00
2013-9-5,80,72,64,69,62,55,88,71,61,29.26,29.13,15,6,15,0.00
2013-9-6,89,79,71,71,69,66,96,74,49,29.14,28.90,6,1,6,0.00
2013-9-7,90,79,70,71,68,64,95,72,49,29.06,28.90,21,4,21,0.00
2013-9-8,73,70,66,67,62,58,87,79,71,29.09,28.92,22,8,22,0.00
2013-9-9,92,78,70,74,70,66,97,80,51,28.93,28.67,18,3,20,0.00
2013-9-10,80,73,68,70,66,61,94,79,55,29.04,28.81,14,3,14,0.00
2013-9-11,81,73,66,64,59,52,90,66,38,29.11,29.03,18,4,18,0.00
2013-9-12,71,65,57,56,51,47,88,63,42,29.28,29.11,20,6,21,0.00
2013-9-13,73,62,54,53,48,43,83,61,41,29.32,29.12,12,2,12,0.00
2013-9-14,71,61,53,57,52,47,96,74,50,29.14,28.93,20,2,20,0.42
2013-9-15,64,59,54,58,55,48,99,87,72,29.36,28.91,16,6,16,0.09
2013-9-16,64,56,48,48,46,42,90,70,53,29.44,29.28,17,6,17,0.00
2013-9-17,66,58,52,60,53,47,98,83,70,29.29,28.98,17,3,17,0.00
2013-9-18,75,68,61,71,66,60,100,94,84,28.98,28.74,15,2,16,0.04
2013-9-19,76,71,64,71,67,56,99,90,77,28.89,28.69,35,3,35,0.10
2013-9-20,64,58,53,57,53,50,95,84,64,28.99,28.85,22,8,22,0.00
2013-9-21,64,57,49,53,48,46,96,74,59,29.05,28.95,8,4,11,0.00
2013-9-22,72,61,51,59,53,47,89,76,59,29.01,28.87,23,8,23,0.00
2013-9-23,71,64,57,56,54,52,86,71,55,28.98,28.89,16,6,16,0.00
2013-9-24,74,64,54,59,54,50,88,71,54,29.01,28.95,13,5,13,0.00
2013-9-25,71,64,56,56,54,53,89,73,56,29.01,28.89,16,5,18,0.00
2013-9-26,78,68,59,62,58,53,84,72,57,28.95,28.85,16,8,20,0.03
2013-9-27,81,72,68,65,62,61,83,72,53,28.96,28.82,19,4,19,0.01
2013-9-28,72,62,52,64,56,46,96,80,71,28.99,28.68,24,5,24,0.06
2013-9-29,74,61,48,52,48,43,87,64,39,29.01,28.82,12,1,12,0.00
2013-9-30,77,68,59,56,52,49,71,58,45,28.84,28.63,8,2,8,0.25
2013-10-1,72,65,54,54,47,37,81,55,28,29.04,28.64,24,5,26,0.00
2013-10-2,72,61,51,57,48,39,95,65,33,29.08,28.87,22,6,22,0.69
2013-10-3,60,58,56,59,57,56,100,98,93,28.99,28.88,13,5,13,0.04
2013-10-4,59,57,56,59,56,54,100,96,92,29.02,28.86,27,11,27,3.56
2013-10-5,61,55,48,60,49,44,100,80,66,28.89,28.81,13,3,13,0.01
2013-10-6,54,50,46,52,49,45,100,97,93,28.90,28.74,22,5,22,0.04
2013-10-7,66,55,46,53,46,41,95,75,43,29.02,28.87,12,3,12,0.00
2013-10-8,75,64,54,51,48,46,80,60,39,29.01,28.84,10,2,12,0.00
2013-10-9,74,65,58,54,52,50,79,64,50,29.07,28.96,9,2,9,3.18
2013-10-10,74,68,57,57,53,49,75,61,49,29.07,28.91,16,6,16,6.36
2013-10-11,71,65,58,62,56,53,92,72,59,28.92,28.63,41,10,45,3.20
2013-10-12,59,51,48,52,44,40,86,77,67,29.22,28.76,31,6,31,0.11
2013-10-13,59,50,40,46,39,35,91,67,41,29.47,29.21,11,3,11,0.00
2013-10-14,53,51,48,47,41,38,90,70,63,29.42,28.99,25,10,25,0.08
2013-10-15,54,49,46,54,49,46,100,98,93,28.89,28.72,29,11,29,0.02
2013-10-16,53,47,44,46,42,37,99,83,59,29.01,28.88,19,6,19,0.02
2013-10-17,56,48,42,47,42,36,97,80,60,28.93,28.82,18,5,18,0.07
2013-10-18,50,45,40,42,36,32,97,73,51,29.03,28.88,16,6,16,0.05
2013-10-19,45,40,37,40,37,32,95,86,78,28.88,28.73,19,5,21,0.01
2013-10-20,46,39,35,41,36,32,95,90,76,28.93,28.66,22,5,22,0.06
2013-10-21,39,36,34,35,27,24,88,70,61,29.00,28.91,24,8,24,0.00
2013-10-22,40,38,35,35,32,31,87,80,70,29.08,29.04,13,4,13,0.00
2013-10-23,37,35,33,32,28,23,89,74,61,29.15,29.04,22,6,22,0.00
2013-10-24,42,37,32,35,30,24,90,74,62,29.35,29.14,22,6,22,0.00
2013-10-25,58,45,29,44,36,28,95,74,55,29.35,28.84,19,4,19,0.00
2013-10-26,51,42,37,42,33,31,80,68,58,29.15,28.85,23,8,25,0.00
2013-10-27,56,43,33,37,33,29,84,66,47,29.18,28.86,24,4,25,0.00
2013-10-28,41,37,33,33,27,23,85,68,49,29.47,29.18,19,8,19,0.00
2013-10-29,41,38,33,39,32,28,95,79,74,29.42,29.12,16,7,16,0.06
2013-10-30,49,45,40,49,45,39,100,99,95,29.12,28.72,16,4,17,0.07
2013-10-31,49,43,40,49,43,39,100,99,94,28.73,28.47,15,6,15,0.06
2013-11-1,50,43,39,41,39,36,97,85,66,28.91,28.48,18,6,18,0.00
2013-11-2,48,40,34,40,35,32,95,82,61,29.13,28.90,17,3,17,0.00
2013-11-3,53,47,40,38,36,35,86,67,51,29.14,28.88,37,13,39,0.15
2013-11-4,48,46,40,44,40,37,95,80,65,29.14,28.86,18,4,18,0.02
2013-11-5,39,34,33,35,34,31,99,96,75,29.27,29.06,19,5,19,0.12
2013-11-6,36,33,30,35,30,26,99,87,72,29.18,29.06,22,7,22,0.06
2013-11-7,35,32,27,32,30,28,99,92,86,29.28,29.21,13,4,13,0.03
2013-11-8,45,43,30,37,34,29,97,69,60,29.17,28.66,30,9,30,0.00
2013-11-9,44,39,36,40,32,28,87,73,66,29.25,28.83,24,12,24,0.00
2013-11-10,39,37,34,33,30,29,81,77,71,29.36,29.19,17,6,17,0.00
2013-11-11,33,27,18,29,18,11,85,68,56,29.70,29.21,20,14,20,0.00
2013-11-12,27,23,13,16,14,11,88,65,53,29.79,29.53,11,5,11,0.56
2013-11-13,52,43,24,36,32,18,78,64,54,29.44,28.92,14,4,14,0.00
2013-11-14,52,41,35,41,35,31,93,80,65,28.93,28.80,14,2,14,0.00
2013-11-15,53,44,34,41,37,33,98,79,61,28.90,28.68,15,2,15,0.00
2013-11-16,44,42,41,40,38,37,92,85,76,28.69,28.57,15,5,15,0.00
2013-11-22,34,26,16,18,14,8,71,57,39,29.62,29.48,23,11,23,0.00
2013-11-23,17,10,7,8,6,4,88,79,56,29.86,29.69,19,6,19,0.00
2013-11-24,31,19,9,21,13,4,87,76,60,29.73,29.02,17,3,17,0.00
2013-11-25,37,33,28,29,25,18,87,73,63,29.13,28.94,20,6,21,0.00
2013-11-26,30,23,15,24,16,8,75,67,56,29.40,29.12,22,12,22,0.00
2013-11-27,23,16,10,14,11,8,91,78,62,29.41,29.10,14,5,14,0.00
2013-11-28,24,22,18,16,15,14,78,71,64,29.50,29.13,18,7,18,0.00
2013-11-29,32,27,17,24,21,16,87,74,64,29.51,29.18,16,4,16,0.00
2013-11-30,39,33,26,31,27,23,92,78,67,29.19,29.06,11,3,11,0.00
2013-12-1,32,26,21,28,24,21,96,90,82,29.23,29.02,4,1,4,0.00
2013-12-2,36,35,30,36,33,28,99,93,84,28.83,28.62,24,12,24,0.10
2013-12-3,36,35,33,36,35,33,100,99,96,28.83,28.63,16,6,16,0.04
2013-12-4,33,29,13,33,29,11,100,99,92,28.82,28.54,19,6,20,0.00
2013-12-5,11,5,-2,8,2,-6,91,86,80,29.39,28.78,11,3,11,0.00
2013-12-6,1,-4,-8,0,-5,-13,89,85,79,29.69,29.39,7,2,7,0.00
2013-12-7,-1,-6,-11,-6,-6,-13,87,83,73,29.76,29.60,11,2,11,0.00
2013-12-8,11,6,-2,8,3,-6,92,88,78,29.61,29.12,15,5,15,0.00
2013-12-9,8,2,-4,8,0,-6,94,88,79,29.16,28.90,13,4,13,0.00
2013-12-10,13,6,1,11,4,0,93,83,76,29.34,28.81,30,6,31,0.00
2013-12-11,4,-5,-9,0,-8,-13,84,78,73,29.61,29.33,23,5,23,0.00
2013-12-12,18,13,4,14,10,0,89,82,74,29.33,29.18,9,2,9,0.00
2013-12-13,15,13,10,14,10,8,90,83,79,29.33,29.15,20,10,20,0.00
2013-12-14,10,10,9,8,8,8,91,90,89,29.32,29.26,14,7,14,0.00
2013-12-15,2,1,1,0,0,0,75,73,72,29.19,29.16,9,4,9,0.00
2013-12-16,25,11,2,24,9,0,95,85,71,29.16,28.95,17,5,17,0.00
2013-12-17,33,23,8,31,19,8,93,82,71,29.16,28.93,30,7,33,0.08
2013-12-18,35,24,7,28,20,8,94,84,72,29.12,28.71,20,4,20,0.02
2013-12-19,27,17,15,24,14,11,91,84,77,29.13,28.86,21,9,21,0.00
2013-12-20,18,15,12,16,13,11,92,89,82,29.08,28.90,13,4,15,0.00
2013-12-21,21,18,15,18,15,14,90,87,80,29.05,28.91,17,4,17,0.00
2013-12-22,16,12,2,14,10,0,91,88,85,29.30,29.00,17,7,17,0.00
2013-12-23,2,-4,-11,0,-7,-13,87,80,75,29.56,29.30,19,6,21,0.00
2013-12-24,10,-2,-15,8,-4,-13,91,80,62,29.55,29.17,18,4,18,0.00
2013-12-25,28,17,11,26,14,8,95,87,72,29.20,29.08,28,3,28,0.08
2013-12-26,27,19,10,26,18,11,97,93,88,29.22,29.11,7,2,7,0.00
2013-12-27,38,29,10,32,27,11,99,91,77,29.20,28.95,18,3,18,0.07
2013-12-28,42,29,18,35,28,16,100,94,71,29.08,28.74,36,5,36,0.03
2013-12-29,18,-2,-14,16,-5,-13,86,74,61,29.39,29.07,33,9,33,0.00
2013-12-30,2,-5,-14,4,-5,-13,90,85,81,29.36,29.21,11,3,11,0.00
2013-12-31,-1,-7,-11,-6,-8,-13,90,84,76,29.47,29.26,11,4,12,0.00
2014-1-1,0,-4,-8,-6,-9,-13,78,75,72,29.54,29.45,13,6,14,0.00
2014-1-2,1,-5,-11,-6,-11,-13,81,68,54,29.56,29.47,9,3,9,0.00